SCP
0 0 0 0 0 0 0 0 0 0 0 0 0 0 0 0 0 0 0 0 0 0 0 0 0 0 0 0 0 0 0 0 0 0 0 0 0 0 0 0 0 0 0
0 0 0 0 0 0 0 0 0 0 0 0 0 0 0 0 0 0 0 0 0 0 0 0 0 0 0 0 0 0 0 0 0 0 0 0 0 0 0 0 0 0 0
0 0 0 0 0 0 0 0 0 0 0 0 0 0 0 0 0 0 0 0 0 0 0 0 0 0 0 0 0 0 0 0 0 0 0 0 0 0 0 0 0 0 0
0 0 0 0 0 0 0 0 0 0 0 0 0 0 0 0 0 0 0 0 0 0 0 0 0 0 0 0 0 0 0 0 0 0 0 0 0 0 0 0 0 0 0
0 0 0 0 0 0 0 0 0 0 0 0 0 0 0 0 0 0 0 0 0 0 0 0 0 0 0 0 0 0 0 0 0 0 0 0 0 0 0 0 0 0 0
0 0 0 0 0 0 0 0 0 0 0 0 0 0 0 0 0 0 0 0 0 0 0 0 0 0 0 0 0 0 0 0 0 0 0 0 0 0 0 0 0 0 0
0 0 0 0 0 0 0 0 0 0 0 0 0 0 0 0 0 0 0 0 0 0 0 0 0 0 0 0 0 0 0 0 0 0 0 0 0 0 0 0 0 0 0
0 0 0 0 0 0 0 0 0 0 0 0 0 0 0 0 0 0 0 0 0 0 0 0 0 0 0 0 0 0 0 0 0 0 0 0 0 0 0 0 0 0 0
0 0 0 0 0 0 0 0 0 0 0 0 0 0 0 0 0 0 0 0 0 0 0 0 0 0 0 0 0 0 0 0 0 0 0 0 0 0 0 0 0 0 0
0 0 0 0 0 0 0 0 0 0 0 0 0 0 0 0 0 0 0 0 0 0 0 0 0 0 0 0 0 0 0 0 0 0 0 0 0 0 0 0 0 0 0
0 0 0 0 0 0 0 0 0 0 0 0 0 0 0 0 0 0 0 0 0 0 0 0 0 0 0 0 0 0 0 0 0 0 0 0 0 0 0 0 0 0 0
0 0 0 0 0 0 0 0 0 0 0 0 0 0 0 0 0 0 0 0 0 0 0 0 0 0 0 0 0 0 0 0 0 0 0 0 0 0 0 0 0 0 0
0 0 0 0 0 0 0 0 0 0 0 0 0 0 0 0 0 0 0 0 0 0 0 0 0 0 0 0 0 0 0 0 0 0 0 0 0 0 0 0 0 0 0
0 0 0 0 0 0 0 0 0 0 0 0 0 0 0 0 0 0 0 0 0 0 0 0 0 0 0 0 0 0 0 0 0 0 0 0 0 0 0 0 0 0 0
0 0 0 0 0 0 0 0 0 0 0 0 0 0 0 0 0 0 0 0 0 0 0 0 0 0 0 0 0 0 0 0 0 0 0 0 0 0 0 0 0 0 0
0 0 0 0 0 0 0 0 0 0 0 0 0 0 0 0 0 0 0 0 0 0 0 0 0 0 0 0 0 0 0 0 0 0 0 0 0 0 0 0 0 0 0
0 0 0 0 0 0 0 0 0 0 0 0 0 0 0 0 0 0 0 0 0 0 0 0 0 0 0 0 0 0 0 0 0 0 0 0 0 0 0 0 0 0 0
0 0 0 0 0 0 0 0 0 0 0 0 0 0 0 0 0 0 0 0 0 0 0 0 0 0 0 0 0 0 0 0 0 0 0 0 0 0 0 0 0 0 0
0 0 0 0 0 0 0 0 0 0 0 0 0 0 0 0 0 0 0 0 0 0 0 0 0 0 0 0 0 0 0 0 0 0 0 0 0 0 0 0 0 0 0
0 0 0 0 0 0 0 0 0 0 0 0 0 0 0 0 0 0 0 0 0 0 0 0 0 0 0 0 0 0 0 0 0 0 0 0 0 0 0 0 0 0 0
0 0 0 0 0 0 0 0 -0 -0 -0 -0 0 0 0 0 0 0 0 0 0 0 0 0 0 0 0 0 0 0 0 0 0 0 0 0 0 0 0 0 0 0 0
-0 -0 -0 -0 -0 -0 -0 -0 -0 -0 -0 -0 0 0 0 0 0 0 0 0 0 0 0 0 0 0 0 0 0 0 0 0 0 0 0 0 0 0 0 0 0 0 0
-0 -0 0 -0 -0 -0 -0 -0 -0 -0 0 0 0 0 0 0 0 0 0 0 0 0 0 0 0 0 0 0 0 0 0 0 0 0 0 0 0 0 0 0 0 0 0
0 0 0 -0 -0 -0 -0 0 0 0 0 0 0 0 0 0 0 0 0 0 0 0 0 0 0 0 0 0 0 0 0 0 0 0 0 0 0 0 0 0 0 0 0
0 -0 0 0 0 0 0 0 0 0 0 0 0 0 0 0 0 0 0 0 0 0 0 0 0 0 0 0 0 0 0 0 0 0 0 0 0 0 0 0 0 0 0
0 0 0 0 0 0 0 0 0 0 0 0 0 0 0 0 0 0 0 0 0 0 0 0 0 0 0 0 0 0 0 0 0 0 0 0 0 0 0 0 0 0 0
Wind_Speed_500mb
11 14 17 19 20 22 23 24 24 27 24 23 24 19 18 16 15 14 12 12 14 17 17 15 14 16 14 11 11 12 13 15 21 22 24 27 28 29 31 32 31 32 35
7 8 10 12 14 15 17 20 22 20 22 22 20 19 16 16 16 13 12 15 16 14 11 9 8 6 3 1 1 3 5 9 14 17 20 21 23 25 26 28 31 33 35
5 4 4 6 5 5 10 13 16 16 20 21 22 19 19 18 16 16 15 13 11 11 9 6 4 3 3 5 6 8 9 9 10 12 15 17 19 21 23 25 27 30 33
7 7 6 7 8 9 10 12 12 14 13 13 14 15 17 17 16 14 13 12 11 10 8 5 3 4 5 8 9 10 10 10 10 11 13 14 16 19 21 24 27 31 36
15 13 11 12 13 11 13 14 16 16 17 16 15 15 16 18 18 17 15 12 9 5 4 4 4 6 7 10 10 10 11 11 11 10 11 12 16 20 24 29 32 35 38
15 17 17 16 18 18 18 18 17 17 19 20 20 19 20 19 15 11 8 6 6 5 5 5 7 9 11 11 13 14 13 12 11 11 11 14 18 22 25 30 34 40 39
17 19 22 21 20 21 22 22 22 23 24 22 22 19 16 13 13 10 9 6 5 5 6 7 8 10 11 12 14 14 13 13 12 12 14 16 19 23 27 29 33 35 40
17 19 21 22 23 25 25 23 22 22 20 19 19 18 15 14 13 9 7 4 3 4 6 8 10 12 12 13 13 13 13 13 13 14 16 17 19 23 26 29 35 38 40
20 21 23 24 22 22 22 21 20 19 18 17 16 15 12 8 8 7 6 7 7 8 9 9 9 10 10 10 12 14 16 17 18 18 19 20 22 23 26 30 34 40 45
20 20 20 20 21 21 20 20 19 19 16 14 12 10 7 5 3 2 4 7 8 10 10 11 12 14 13 13 16 18 18 19 19 19 20 21 23 26 27 30 33 37 43
21 19 19 20 19 18 18 18 17 16 13 10 7 4 2 3 5 6 8 10 11 13 15 14 15 16 16 17 18 18 18 19 20 19 18 20 21 24 26 29 33 37 41
23 21 20 18 17 16 17 16 15 13 10 9 9 8 8 10 12 11 12 15 16 17 18 17 18 17 19 21 22 21 21 21 19 19 20 21 21 24 28 30 33 36 40
25 24 24 25 24 23 21 20 18 16 15 14 13 13 14 16 18 18 19 19 19 21 21 20 21 21 22 23 24 23 22 21 21 21 21 23 25 28 31 33 35 38 41
25 24 24 25 26 28 28 27 25 21 20 19 18 19 20 22 23 24 25 25 24 24 22 21 23 24 25 25 25 24 23 22 22 22 22 25 28 31 35 38 40 44 47
29 29 30 30 30 31 30 28 27 25 23 24 24 24 26 27 28 32 31 30 29 29 27 26 26 27 27 28 25 24 24 24 24 26 27 30 32 36 40 43 45 49 54
37 35 34 34 36 36 35 33 30 30 30 29 29 31 33 35 38 38 37 34 32 33 33 29 29 30 30 29 29 27 27 28 28 30 33 35 37 41 46 51 54 57 61
36 34 33 34 36 36 36 35 34 35 35 37 37 38 39 40 41 39 37 36 37 38 39 31 33 33 32 33 32 31 29 32 34 36 39 41 44 46 51 55 59 64 69
33 33 35 35 37 38 38 39 41 42 41 41 42 44 43 42 41 41 39 40 42 41 40 38 37 36 35 35 34 34 35 37 40 42 45 48 51 53 57 62 65 69 73
34 33 34 36 38 41 43 45 46 46 47 47 48 48 45 45 44 43 43 43 44 43 41 41 41 41 41 40 39 40 43 46 47 49 52 55 57 60 64 67 71 72 75
39 38 39 42 44 47 49 50 51 52 52 51 51 48 49 49 49 46 46 47 47 45 43 45 44 45 46 46 46 48 50 53 55 57 59 62 63 66 70 73 75 77 78
44 45 46 49 51 51 53 54 55 56 56 55 52 49 50 52 50 49 48 48 49 47 45 48 49 50 51 51 52 54 57 59 61 63 65 66 69 72 72 74 76 77 79
51 52 53 55 55 57 57 57 57 58 58 56 52 49 51 54 50 48 48 48 48 49 50 53 55 56 55 55 57 59 62 64 65 67 69 70 71 73 73 73 74 74 74
56 58 59 59 58 58 59 59 60 58 56 54 51 50 51 52 51 49 48 46 49 51 53 56 59 59 58 59 61 63 67 67 67 69 71 71 73 73 72 72 72 70 70
57 58 58 58 59 59 59 58 57 56 54 52 51 50 51 52 53 51 49 48 50 53 55 57 59 60 61 63 65 67 67 67 69 69 70 71 71 70 69 67 66 65 61
54 55 56 55 55 55 54 54 54 53 53 52 51 50 49 50 51 50 51 52 53 56 57 58 60 61 63 64 66 68 69 68 68 68 68 68 67 65 63 64 60 56 54
49 50 50 51 51 51 52 52 51 50 50 49 49 48 48 49 50 52 53 54 56 58 60 61 63 63 63 65 64 64 67 68 68 66 67 64 62 63 58 55 53 53 51
Wind_Direction_500mb
230 234 238 237 234 231 228 232 238 232 230 242 268 242 246 240 233 228 234 228 223 229 205 189 210 233 248 256 260 262 259 256 263 267 270 271 279 295 305 310 313 317 319
228 228 233 233 232 228 229 227 222 225 231 224 221 222 217 220 213 222 216 198 188 196 210 219 220 211 229 223 286 294 291 284 275 274 276 281 292 300 306 312 318 320 323
150 161 178 178 188 192 213 219 228 228 232 212 206 203 210 197 184 188 192 189 191 183 175 158 152 112 28 349 335 334 328 319 309 293 285 289 298 305 313 319 321 321 323
125 132 128 121 141 172 157 150 153 156 160 156 167 173 174 174 170 168 163 159 153 141 125 114 63 21 0 354 349 346 343 334 321 308 300 300 308 316 321 322 323 326 325
117 120 127 142 150 158 153 164 158 150 158 162 161 164 162 154 145 135 132 129 122 111 90 60 32 7 357 350 353 346 342 335 328 319 318 320 324 327 332 332 330 329 328
140 145 147 150 149 147 150 150 152 156 154 150 145 138 132 133 123 119 118 115 102 84 57 32 14 5 354 353 348 344 340 338 331 328 329 331 331 332 332 329 332 336 338
146 146 143 143 144 144 141 139 139 137 133 135 135 136 140 132 117 107 100 93 73 49 22 2 356 351 350 348 345 340 336 331 326 330 330 328 326 326 328 328 333 338 334
152 149 145 143 145 141 139 140 140 136 135 137 136 135 131 125 115 108 91 86 48 10 353 349 345 339 333 335 332 329 326 325 323 323 322 321 324 327 331 334 335 336 336
165 159 154 150 150 150 148 151 148 141 141 137 132 125 123 110 89 68 41 10 349 334 323 319 311 309 307 318 318 318 318 319 322 324 327 328 328 330 332 333 335 336 337
176 171 166 166 165 165 162 157 150 145 142 139 133 131 132 128 95 29 333 314 308 301 298 300 302 305 314 315 315 315 316 318 320 322 325 328 328 327 327 331 335 339 340
188 190 186 183 179 172 167 163 160 159 160 160 163 180 207 278 298 310 307 301 295 296 293 290 291 295 304 303 305 312 315 312 313 316 318 315 316 321 327 333 337 338 336
198 195 192 187 185 187 186 184 189 183 186 203 223 243 268 288 293 295 290 292 288 282 282 284 281 288 295 300 304 306 305 305 303 303 304 310 317 324 329 331 332 332 330
198 196 196 197 198 199 204 205 206 211 219 229 243 261 273 279 285 290 286 284 286 284 277 275 280 287 291 295 298 297 292 287 287 293 305 311 319 321 321 325 328 327 326
216 217 222 223 216 210 208 211 217 224 237 245 254 263 271 277 280 285 286 286 280 274 275 277 283 290 293 294 289 283 279 283 290 296 300 306 312 315 318 322 322 321 321
232 239 240 234 226 223 224 227 232 239 248 256 261 269 275 281 284 283 282 278 276 272 272 277 284 288 291 287 281 277 281 284 288 292 299 304 309 311 314 315 317 318 320
244 247 242 231 226 226 230 235 242 249 255 265 276 279 281 281 278 275 271 269 269 269 272 272 275 280 281 281 279 278 280 283 287 292 297 301 305 308 309 312 316 317 318
247 248 237 233 232 235 240 246 253 260 267 271 274 275 274 272 269 270 267 265 264 261 266 268 272 275 278 278 276 278 279 281 287 293 297 300 302 305 307 310 312 314 314
237 234 234 235 238 243 249 255 260 265 270 273 273 272 272 272 271 267 263 261 258 261 261 267 271 273 274 274 275 277 281 284 288 292 296 299 302 305 306 307 309 309 310
238 240 244 246 249 252 255 259 263 265 266 266 268 271 274 271 268 265 261 260 261 260 260 262 265 266 269 271 273 276 280 284 288 292 296 298 301 302 304 305 306 307 308
240 243 246 250 254 257 259 261 263 265 267 268 269 271 270 268 268 266 262 261 261 259 258 261 263 266 269 272 275 277 280 284 288 292 294 296 299 300 302 304 305 307 309
242 245 250 254 257 260 261 263 264 266 268 269 270 269 267 267 267 265 263 261 260 260 258 261 264 265 268 273 277 281 283 285 288 292 294 296 297 299 301 303 304 307 309
247 251 255 259 261 261 262 264 265 265 266 267 269 267 265 266 265 264 263 261 259 258 259 261 264 267 271 275 279 281 283 286 289 292 292 294 296 298 300 302 304 306 307
250 254 257 260 261 261 261 262 263 265 266 267 267 266 265 267 268 267 264 261 259 258 261 264 268 271 275 278 279 282 284 287 289 290 292 295 297 300 301 302 304 304 305
253 255 257 259 260 261 262 263 263 264 265 266 267 266 265 266 266 266 266 266 264 264 265 268 271 275 278 280 282 284 286 288 288 290 292 294 296 298 299 301 303 304 305
255 256 258 260 261 262 262 261 262 262 263 264 264 265 265 265 266 268 270 270 270 269 270 272 274 276 278 280 281 284 286 286 287 289 291 293 295 296 299 301 302 302 305
255 256 257 258 259 260 261 262 263 263 264 264 265 265 265 267 270 273 274 275 275 276 276 277 279 280 281 283 285 286 286 288 289 290 292 292 293 296 298 298 299 302 305
Wind_Speed_850mb
11 14 17 19 20 22 23 24 24 27 24 23 24 19 18 16 15 14 12 12 14 17 17 15 14 16 14 11 11 12 13 15 21 22 24 27 28 29 31 32 31 32 35
7 8 10 12 14 15 17 20 22 20 22 22 20 19 16 16 16 13 12 15 16 14 11 9 8 6 3 1 1 3 5 9 14 17 20 21 23 25 26 28 31 33 35
5 4 4 6 5 5 10 13 16 16 20 21 22 19 19 18 16 16 15 13 11 11 9 6 4 3 3 5 6 8 9 9 10 12 15 17 19 21 23 25 27 30 33
7 7 6 7 8 9 10 12 12 14 13 13 14 15 17 17 16 14 13 12 11 10 8 5 3 4 5 8 9 10 10 10 10 11 13 14 16 19 21 24 27 31 36
15 13 11 12 13 11 13 14 16 16 17 16 15 15 16 18 18 17 15 12 9 5 4 4 4 6 7 10 10 10 11 11 11 10 11 12 16 20 24 29 32 35 38
15 17 17 16 18 18 18 18 17 17 19 20 20 19 20 19 15 11 8 6 6 5 5 5 7 9 11 11 13 14 13 12 11 11 11 14 18 22 25 30 34 40 39
17 19 22 21 20 21 22 22 22 23 24 22 22 19 16 13 13 10 9 6 5 5 6 7 8 10 11 12 14 14 13 13 12 12 14 16 19 23 27 29 33 35 40
17 19 21 22 23 25 25 23 22 22 20 19 19 18 15 14 13 9 7 4 3 4 6 8 10 12 12 13 13 13 13 13 13 14 16 17 19 23 26 29 35 38 40
20 21 23 24 22 22 22 21 20 19 18 17 16 15 12 8 8 7 6 7 7 8 9 9 9 10 10 10 12 14 16 17 18 18 19 20 22 23 26 30 34 40 45
20 20 20 20 21 21 20 20 19 19 16 14 12 10 7 5 3 2 4 7 8 10 10 11 12 14 13 13 16 18 18 19 19 19 20 21 23 26 27 30 33 37 43
21 19 19 20 19 18 18 18 17 16 13 10 7 4 2 3 5 6 8 10 11 13 15 14 15 16 16 17 18 18 18 19 20 19 18 20 21 24 26 29 33 37 41
23 21 20 18 17 16 17 16 15 13 10 9 9 8 8 10 12 11 12 15 16 17 18 17 18 17 19 21 22 21 21 21 19 19 20 21 21 24 28 30 33 36 40
25 24 24 25 24 23 21 20 18 16 15 14 13 13 14 16 18 18 19 19 19 21 21 20 21 21 22 23 24 23 22 21 21 21 21 23 25 28 31 33 35 38 41
25 24 24 25 26 28 28 27 25 21 20 19 18 19 20 22 23 24 25 25 24 24 22 21 23 24 25 25 25 24 23 22 22 22 22 25 28 31 35 38 40 44 47
29 29 30 30 30 31 30 28 27 25 23 24 24 24 26 27 28 32 31 30 29 29 27 26 26 27 27 28 25 24 24 24 24 26 27 30 32 36 40 43 45 49 54
37 35 34 34 36 36 35 33 30 30 30 29 29 31 33 35 38 38 37 34 32 33 33 29 29 30 30 29 29 27 27 28 28 30 33 35 37 41 46 51 54 57 61
36 34 33 34 36 36 36 35 34 35 35 37 37 38 39 40 41 39 37 36 37 38 39 31 33 33 32 33 32 31 29 32 34 36 39 41 44 46 51 55 59 64 69
33 33 35 35 37 38 38 39 41 42 41 41 42 44 43 42 41 41 39 40 42 41 40 38 37 36 35 35 34 34 35 37 40 42 45 48 51 53 57 62 65 69 73
34 33 34 36 38 41 43 45 46 46 47 47 48 48 45 45 44 43 43 43 44 43 41 41 41 41 41 40 39 40 43 46 47 49 52 55 57 60 64 67 71 72 75
39 38 39 42 44 47 49 50 51 52 52 51 51 48 49 49 49 46 46 47 47 45 43 45 44 45 46 46 46 48 50 53 55 57 59 62 63 66 70 73 75 77 78
44 45 46 49 51 51 53 54 55 56 56 55 52 49 50 52 50 49 48 48 49 47 45 48 49 50 51 51 52 54 57 59 61 63 65 66 69 72 72 74 76 77 79
51 52 53 55 55 57 57 57 57 58 58 56 52 49 51 54 50 48 48 48 48 49 50 53 55 56 55 55 57 59 62 64 65 67 69 70 71 73 73 73 74 74 74
56 58 59 59 58 58 59 59 60 58 56 54 51 50 51 52 51 49 48 46 49 51 53 56 59 59 58 59 61 63 67 67 67 69 71 71 73 73 72 72 72 70 70
57 58 58 58 59 59 59 58 57 56 54 52 51 50 51 52 53 51 49 48 50 53 55 57 59 60 61 63 65 67 67 67 69 69 70 71 71 70 69 67 66 65 61
54 55 56 55 55 55 54 54 54 53 53 52 51 50 49 50 51 50 51 52 53 56 57 58 60 61 63 64 66 68 69 68 68 68 68 68 67 65 63 64 60 56 54
49 50 50 51 51 51 52 52 51 50 50 49 49 48 48 49 50 52 53 54 56 58 60 61 63 63 63 65 64 64 67 68 68 66 67 64 62 63 58 55 53 53 51
Wind_Direction_850mb
230 234 238 237 234 231 228 232 238 232 230 242 268 242 246 240 233 228 234 228 223 229 205 189 210 233 248 256 260 262 259 256 263 267 270 271 279 295 305 310 313 317 319
228 228 233 233 232 228 229 227 222 225 231 224 221 222 217 220 213 222 216 198 188 196 210 219 220 211 229 223 286 294 291 284 275 274 276 281 292 300 306 312 318 320 323
150 161 178 178 188 192 213 219 228 228 232 212 206 203 210 197 184 188 192 189 191 183 175 158 152 112 28 349 335 334 328 319 309 293 285 289 298 305 313 319 321 321 323
125 132 128 121 141 172 157 150 153 156 160 156 167 173 174 174 170 168 163 159 153 141 125 114 63 21 0 354 349 346 343 334 321 308 300 300 308 316 321 322 323 326 325
117 120 127 142 150 158 153 164 158 150 158 162 161 164 162 154 145 135 132 129 122 111 90 60 32 7 357 350 353 346 342 335 328 319 318 320 324 327 332 332 330 329 328
140 145 147 150 149 147 150 150 152 156 154 150 145 138 132 133 123 119 118 115 102 84 57 32 14 5 354 353 348 344 340 338 331 328 329 331 331 332 332 329 332 336 338
146 146 143 143 144 144 141 139 139 137 133 135 135 136 140 132 117 107 100 93 73 49 22 2 356 351 350 348 345 340 336 331 326 330 330 328 326 326 328 328 333 338 334
152 149 145 143 145 141 139 140 140 136 135 137 136 135 131 125 115 108 91 86 48 10 353 349 345 339 333 335 332 329 326 325 323 323 322 321 324 327 331 334 335 336 336
165 159 154 150 150 150 148 151 148 141 141 137 132 125 123 110 89 68 41 10 349 334 323 319 311 309 307 318 318 318 318 319 322 324 327 328 328 330 332 333 335 336 337
176 171 166 166 165 165 162 157 150 145 142 139 133 131 132 128 95 29 333 314 308 301 298 300 302 305 314 315 315 315 316 318 320 322 325 328 328 327 327 331 335 339 340
188 190 186 183 179 172 167 163 160 159 160 160 163 180 207 278 298 310 307 301 295 296 293 290 291 295 304 303 305 312 315 312 313 316 318 315 316 321 327 333 337 338 336
198 195 192 187 185 187 186 184 189 183 186 203 223 243 268 288 293 295 290 292 288 282 282 284 281 288 295 300 304 306 305 305 303 303 304 310 317 324 329 331 332 332 330
198 196 196 197 198 199 204 205 206 211 219 229 243 261 273 279 285 290 286 284 286 284 277 275 280 287 291 295 298 297 292 287 287 293 305 311 319 321 321 325 328 327 326
216 217 222 223 216 210 208 211 217 224 237 245 254 263 271 277 280 285 286 286 280 274 275 277 283 290 293 294 289 283 279 283 290 296 300 306 312 315 318 322 322 321 321
232 239 240 234 226 223 224 227 232 239 248 256 261 269 275 281 284 283 282 278 276 272 272 277 284 288 291 287 281 277 281 284 288 292 299 304 309 311 314 315 317 318 320
244 247 242 231 226 226 230 235 242 249 255 265 276 279 281 281 278 275 271 269 269 269 272 272 275 280 281 281 279 278 280 283 287 292 297 301 305 308 309 312 316 317 318
247 248 237 233 232 235 240 246 253 260 267 271 274 275 274 272 269 270 267 265 264 261 266 268 272 275 278 278 276 278 279 281 287 293 297 300 302 305 307 310 312 314 314
237 234 234 235 238 243 249 255 260 265 270 273 273 272 272 272 271 267 263 261 258 261 261 267 271 273 274 274 275 277 281 284 288 292 296 299 302 305 306 307 309 309 310
238 240 244 246 249 252 255 259 263 265 266 266 268 271 274 271 268 265 261 260 261 260 260 262 265 266 269 271 273 276 280 284 288 292 296 298 301 302 304 305 306 307 308
240 243 246 250 254 257 259 261 263 265 267 268 269 271 270 268 268 266 262 261 261 259 258 261 263 266 269 272 275 277 280 284 288 292 294 296 299 300 302 304 305 307 309
242 245 250 254 257 260 261 263 264 266 268 269 270 269 267 267 267 265 263 261 260 260 258 261 264 265 268 273 277 281 283 285 288 292 294 296 297 299 301 303 304 307 309
247 251 255 259 261 261 262 264 265 265 266 267 269 267 265 266 265 264 263 261 259 258 259 261 264 267 271 275 279 281 283 286 289 292 292 294 296 298 300 302 304 306 307
250 254 257 260 261 261 261 262 263 265 266 267 267 266 265 267 268 267 264 261 259 258 261 264 268 271 275 278 279 282 284 287 289 290 292 295 297 300 301 302 304 304 305
253 255 257 259 260 261 262 263 263 264 265 266 267 266 265 266 266 266 266 266 264 264 265 268 271 275 278 280 282 284 286 288 288 290 292 294 296 298 299 301 303 304 305
255 256 258 260 261 262 262 261 262 262 263 264 264 265 265 265 266 268 270 270 270 269 270 272 274 276 278 280 281 284 286 286 287 289 291 293 295 296 299 301 302 302 305
255 256 257 258 259 260 261 262 263 263 264 264 265 265 265 267 270 273 274 275 275 276 276 277 279 280 281 283 285 286 286 288 289 290 292 292 293 296 298 298 299 302 305